FW7551 Weather Reports


time (UTC)temp
C
wind
direction
speed
KPH
gust
KPH
rain 1hr
cm
rain 24hr
cm
rain mn
cm
humidity
%
barometer
mb
20260504194612 20 184 4.8 11.3 0.00 0.00 0.00 49 1008.6
20260504194107 20 172 0.0 14.5 0.00 0.00 0.00 50 1009.1
20260504193604 20 161 9.7 17.7 0.00 0.00 0.00 47 1008.9
20260504193103 20 190 8.0 20.9 0.00 0.00 0.00 48 1008.8
20260504192600 20 131 1.6 17.7 0.00 0.00 0.00 49 1008.8
20260504192058 20 134 3.2 14.5 0.00 0.00 0.00 49 1008.8
20260504191556 19 124 4.8 14.5 0.00 0.00 0.00 49 1009.0
20260504191052 20 158 8.0 16.1 0.00 0.00 0.00 49 1008.9
20260504190548 20 145 8.0 11.3 0.00 0.00 0.00 48 1009.0
20260504190044 20 152 6.4 14.5 0.00 0.00 0.00 49 1008.9
20260504185542 20 80 4.8 17.7 0.00 0.00 0.00 46 1009.3
20260504185038 20 134 1.6 20.9 0.00 0.00 0.00 46 1009.3
20260504184534 20 174 6.4 22.5 0.00 0.00 0.00 45 1009.1
20260504184029 20 144 9.7 12.9 0.00 0.00 0.00 46 1009.4
20260504183527 20 297 4.8 14.5 0.00 0.00 0.00 45 1009.4
20260504183025 19 232 11.3 20.9 0.00 0.00 0.00 45 1009.2
20260504182521 20 153 4.8 9.7 0.00 0.00 0.00 46 1009.8
20260504182019 20 194 4.8 11.3 0.00 0.00 0.00 45 1009.6
20260504181515 20 134 3.2 12.9 0.00 0.00 0.00 49 1009.5
20260504181014 19 135 14.5 20.9 0.00 0.00 0.00 46 1009.8
20260504180512 19 24 8.0 17.7 0.00 0.00 0.00 46 1009.6
20260504180010 20 164 3.2 16.1 0.00 0.00 0.00 47 1010.0
20260504175508 19 171 1.6 11.3 0.00 0.00 0.00 45 1009.8
20260504175004 19 226 4.8 12.9 0.00 0.00 0.00 47 1010.1
20260504174502 19 232 8.0 14.5 0.00 0.00 0.00 46 1010.0
20260504173959 19 286 11.3 20.9 0.00 0.00 0.00 44 1010.2
20260504173456 20 257 9.7 17.7 0.00 0.00 0.00 45 1009.9
20260504172953 20 101 3.2 9.7 0.00 0.00 0.00 47 1009.8
20260504172449 19 167 4.8 14.5 0.00 0.00 0.00 46 1010.1
20260504171946 20 316 8.0 14.5 0.00 0.00 0.00 46 1010.3
20260504171443 19 359 8.0 24.1 0.00 0.00 0.00 46 1010.1
20260504170940 19 199 3.2 9.7 0.00 0.00 0.00 48 1010.1
20260504170436 19 144 8.0 17.7 0.00 0.00 0.00 45 1010.2
20260504160355 19 56 3.2 20.9 0.00 0.00 0.00 39 1010.8
20260504150820 18 307 4.8 11.3 0.00 0.00 0.00 38 1011.7
20260504150316 18 271 8.0 14.5 0.00 0.00 0.00 39 1011.4
20260504141247 17 256 4.8 12.9 0.00 0.00 0.00 46 1011.9
20260504140743 17 24 3.2 9.7 0.00 0.00 0.00 45 1011.8
20260504140239 17 131 3.2 11.3 0.00 0.00 0.00 44 1011.7
20260504130707 15 184 3.2 8.0 0.00 0.00 0.00 51 1012.2
20260504130203 15 151 4.8 12.9 0.00 0.00 0.00 51 1012.4
20260504120127 13 156 0.0 1.6 0.00 0.00 0.00 55 1012.6
20260504110555 11 114 1.6 4.8 0.00 0.00 0.00 60 1012.9
20260504100516 8 157 3.2 3.2 0.00 0.00 0.00 64 1012.7
20260504081910 10 157 0.0 3.2 0.00 0.00 0.00 57 1011.8
20260504081406 10 139 0.0 3.2 0.00 0.00 0.00 56 1011.7
20260504080902 10 145 0.0 1.6 0.00 0.00 0.00 57 1011.7
20260504080359 10 153 0.0 3.2 0.00 0.00 0.00 56 1011.7
20260504070321 10 127 1.6 4.8 0.00 0.00 0.00 58 1011.3
20260504060241 8 139 1.6 1.6 0.00 0.00 0.00 66 1011.1
20260504050709 7 148 1.6 3.2 0.00 0.00 0.00 67 1011.1
20260504050206 7 163 1.6 1.6 0.00 0.00 0.00 69 1010.9
20260504045703 7 153 0.0 3.2 0.00 0.00 0.00 67 1011.0
20260504045158 6 148 0.0 4.8 0.00 0.00 0.00 71 1011.0
20260504044656 6 144 0.0 1.6 0.00 0.00 0.00 73 1011.0
20260504044153 6 144 0.0 0.0 0.00 0.00 0.00 74 1011.1
20260504043650 6 150 0.0 1.6 0.00 0.00 0.00 74 1011.1
20260504043147 6 141 0.0 1.6 0.00 0.00 0.00 74 1010.9
20260504042644 6 148 1.6 1.6 0.00 0.00 0.00 73 1011.1
20260504042140 6 143 0.0 1.6 0.00 0.00 0.00 74 1010.9
20260504041636 6 156 1.6 1.6 0.00 0.00 0.00 73 1011.0
20260504041132 6 162 1.6 1.6 0.00 0.00 0.00 72 1010.8
20260504040630 6 151 1.6 1.6 0.00 0.00 0.00 73 1011.0
20260504040127 6 148 0.0 1.6 0.00 0.00 0.00 74 1010.9
20260504035624 6 147 0.0 1.6 0.00 0.00 0.00 75 1010.9
20260504035120 6 147 0.0 1.6 0.00 0.00 0.00 75 1011.0
20260504034618 6 145 0.0 1.6 0.00 0.00 0.00 75 1010.9
20260504034114 6 147 0.0 1.6 0.00 0.00 0.00 75 1010.9
20260504033613 6 150 0.0 1.6 0.00 0.00 0.00 75 1010.8
20260504033110 6 147 0.0 1.6 0.00 0.00 0.00 74 1010.8
20260504032606 6 163 1.6 1.6 0.00 0.00 0.00 75 1010.8
20260504032103 6 160 1.6 1.6 0.00 0.00 0.00 75 1010.9
20260504031601 6 155 0.0 1.6 0.00 0.00 0.00 76 1010.9
20260504031056 6 147 0.0 1.6 0.00 0.00 0.00 76 1010.8
20260504030554 6 148 0.0 1.6 0.00 0.00 0.00 75 1010.8
20260504030050 6 147 0.0 1.6 0.00 0.00 0.00 75 1010.7
20260504025547 6 153 1.6 1.6 0.00 0.00 0.00 74 1010.8
20260504025044 6 152 1.6 1.6 0.00 0.00 0.00 74 1010.7
20260504024541 6 149 0.0 1.6 0.00 0.00 0.00 74 1010.8
20260504024038 6 147 0.0 1.6 0.00 0.00 0.00 73 1010.6
20260504023534 6 149 0.0 1.6 0.00 0.00 0.00 73 1010.6
20260504023030 6 153 0.0 1.6 0.00 0.00 0.00 73 1010.6
20260504022526 6 151 0.0 1.6 0.00 0.00 0.00 73 1010.8
20260504022023 7 147 0.0 0.0 0.00 0.00 0.00 72 1010.8
20260504021521 7 148 0.0 0.0 0.00 0.00 0.00 72 1010.6
20260504021017 7 153 1.6 1.6 0.00 0.00 0.00 71 1010.6
20260504020514 7 149 0.0 1.6 0.00 0.00 0.00 70 1010.5
20260504020011 7 153 1.6 1.6 0.00 0.00 0.00 70 1010.6
20260504015507 7 147 0.0 1.6 0.00 0.00 0.00 69 1010.7
20260504015003 7 150 0.0 1.6 0.00 0.00 0.00 69 1010.6
20260504014459 7 146 0.0 0.0 0.00 0.00 0.00 69 1010.6
20260504013956 8 147 0.0 0.0 0.00 0.00 0.00 68 1010.4
20260504013455 8 151 0.0 1.6 0.00 0.00 0.00 68 1010.5
20260504012950 8 146 0.0 1.6 0.00 0.00 0.00 67 1010.5
20260504012449 8 145 0.0 0.0 0.00 0.00 0.00 67 1010.2
20260504011946 8 145 0.0 0.0 0.00 0.00 0.00 66 1010.5
20260504011442 9 147 0.0 1.6 0.00 0.00 0.00 67 1010.2
20260504010938 9 146 0.0 0.0 0.00 0.00 0.00 66 1010.0
20260504010434 10 146 0.0 1.6 0.00 0.00 0.00 66 1010.2
20260504005931 10 154 1.6 1.6 0.00 0.00 0.00 65 1010.2
20260504005427 10 156 1.6 1.6 0.00 0.00 0.00 65 1010.2
20260504004925 10 147 0.0 1.6 0.00 0.00 0.00 65 1009.8
20260504004423 10 147 1.6 1.6 0.00 0.00 0.00 64 1009.9
20260504003919 10 146 0.0 0.0 0.00 0.00 0.00 65 1009.8
20260504003416 11 145 0.0 1.6 0.00 0.00 0.00 62 1009.8
20260504002912 11 147 0.0 1.6 0.00 0.00 0.00 61 1009.6
20260504002409 11 144 0.0 0.0 0.00 0.00 0.00 60 1009.6
20260504001907 11 145 1.6 1.6 0.00 0.00 0.00 58 1009.5
20260504001405 11 144 0.0 0.0 0.00 0.00 0.00 58 1009.5
20260504000901 11 113 1.6 1.6 0.00 0.00 0.00 57 1009.4
20260504000358 11 132 0.0 1.6 0.00 0.00 0.00 56 1009.3
20260503235855 11 146 0.0 1.6 0.00 0.00 0.00 55 1009.3
20260503235353 11 152 1.6 1.6 0.00 0.00 0.00 53 1009.0
20260503234850 11 132 0.0 0.0 0.00 0.00 0.00 51 1009.0
20260503234348 12 142 0.0 0.0 0.00 0.00 0.00 51 1009.2
20260503233845 12 158 1.6 8.0 0.00 0.00 0.00 50 1008.8
20260503233341 12 137 0.0 0.0 0.00 0.00 0.00 50 1008.9
20260503232838 12 254 3.2 3.2 0.00 0.00 0.00 50 1008.9
20260503232335 12 140 0.0 1.6 0.00 0.00 0.00 49 1008.8
20260503231833 12 40 1.6 4.8 0.00 0.00 0.00 45 1008.8
20260503231330 12 113 4.8 4.8 0.00 0.00 0.00 44 1008.7
20260503230826 12 137 1.6 4.8 0.00 0.00 0.00 45 1009.0
20260503230323 12 124 0.0 1.6 0.00 0.00 0.00 49 1008.5
20260503225821 13 159 1.6 3.2 0.00 0.00 0.00 47 1008.5
20260503225316 13 232 3.2 4.8 0.00 0.00 0.00 46 1008.7
20260503224813 13 141 1.6 11.3 0.00 0.00 0.00 44 1008.7
20260503224310 13 206 1.6 3.2 0.00 0.00 0.00 43 1008.4
20260503223808 13 138 0.0 3.2 0.00 0.00 0.00 42 1008.7
20260503223305 13 140 1.6 4.8 0.00 0.00 0.00 40 1008.4
20260503222801 14 140 0.0 3.2 0.00 0.00 0.00 40 1008.4
20260503222300 15 225 4.8 4.8 0.00 0.00 0.00 40 1008.4
20260503221757 14 133 1.6 3.2 0.00 0.00 0.00 39 1008.5
20260503221255 14 328 1.6 4.8 0.00 0.00 0.00 39 1008.5
20260503220751 15 288 4.8 9.7 0.00 0.00 0.00 38 1008.3
20260503220249 15 157 0.0 8.0 0.00 0.00 0.00 40 1008.2
20260503215745 15 82 3.2 4.8 0.00 0.00 0.00 38 1008.4
20260503215242 15 279 1.6 12.9 0.00 0.00 0.00 38 1008.3
20260503214740 15 245 1.6 4.8 0.00 0.00 0.00 40 1008.3
20260503214236 15 251 4.8 14.5 0.00 0.00 0.00 39 1008.4
20260503213735 15 127 3.2 4.8 0.00 0.00 0.00 40 1008.4
20260503213232 15 251 4.8 11.3 0.00 0.00 0.00 40 1008.5
20260503212728 15 241 3.2 11.3 0.00 0.00 0.00 38 1008.2
20260503212226 15 292 3.2 4.8 0.00 0.00 0.00 39 1008.4
20260503211724 15 345 3.2 9.7 0.00 0.00 0.00 42 1008.1
20260503211220 15 306 3.2 11.3 0.00 0.00 0.00 38 1008.1
20260503210715 15 162 3.2 8.0 0.00 0.00 0.00 38 1008.0
20260503210213 14 234 4.8 4.8 0.00 0.00 0.00 40 1008.4
20260503205708 15 239 4.8 9.7 0.00 0.00 0.00 39 1008.1
20260503205204 14 129 1.6 12.9 0.00 0.00 0.00 41 1008.1
20260503204701 14 299 8.0 11.3 0.00 0.00 0.00 39 1008.3
20260503204159 15 8 4.8 4.8 0.00 0.00 0.00 41 1008.3
20260503203655 15 299 3.2 9.7 0.00 0.00 0.00 41 1008.2
20260503203153 14 258 4.8 8.0 0.00 0.00 0.00 38 1008.3
20260503202650 14 352 1.6 9.7 0.00 0.00 0.00 41 1008.3
20260503202148 15 317 4.8 4.8 0.00 0.00 0.00 39 1008.2
20260503201646 15 187 3.2 9.7 0.00 0.00 0.00 40 1008.3
20260503201143 14 134 0.0 4.8 0.00 0.00 0.00 43 1008.4
20260503200639 15 346 4.8 11.3 0.00 0.00 0.00 43 1008.2
20260503200135 14 40 3.2 8.0 0.00 0.00 0.00 49 1008.3
20260503195633 14 10 4.8 9.7 0.00 0.00 0.00 41 1008.5
20260503195130 14 357 1.6 8.0 0.00 0.00 0.00 44 1008.3